Greenville, MS

6:30 PM CDT on September 17, 2019 (GMT -0500)
Mid Delta Regional

Weather History for KGLH - July, 2019

Change the Weather History Date:

Saturday, July 20, 2019

  Actual Average Record
Temperature  
Mean Temperature 85 °F 82 °F  
Max Temperature 93 °F 92 °F 104 °F (1986)
Min Temperature 76 °F 72 °F 59 °F (1918)
Degree Days  
Heating Degree Days 0 0  
Month to date heating degree days 0 0  
Since 1 June heating degree days 0 0  
Since 1 July heating degree days 0 0  
Cooling Degree Days 20 17  
Month to date cooling degree days 354 338  
Year to date cooling degree days 1160 1080  
Since 1 June cooling degree days 764 758  
Growing Degree Days 34 (Base 50)    
Moisture  
Dew Point 75 °F    
Average Humidity 72    
Maximum Humidity 91    
Minimum Humidity 52    
Precipitation  
Precipitation 0.00 in 0.12 in 1.37 in (1938)
Month to date precipitation 3.29 2.74  
Year to date precipitation 54.97 31.04  
Sea Level Pressure  
Sea Level Pressure 30.00 in    
Wind  
Wind Speed 8 mph (SSW)    
Max Wind Speed 13 mph    
Max Gust Speed 16 mph    
Visibility 10 miles    
Events      
T = Trace of Precipitation, MM = Missing Value Source: NWS Daily Summary

Daily Weather History Graph

Daily Weather History Graph

Search for Another Location

Airport or City:

Astronomy

Jul. 20, 2019 Rise Set
Actual Time 6:08 AM CDT 8:12 PM CDT
Civil Twilight 5:40 AM CDT 8:40 PM CDT
Nautical Twilight 5:06 AM CDT 9:14 PM CDT
Astronomical Twilight 4:29 AM CDT 9:50 PM CDT
Moon 10:48 PM CDT (7/20) 9:24 AM CDT (7/20)
Length of Visible Light 15h 00m
Length of Day
14h 04m
Waning Gibbous, 87% of the Moon is Illuminated
Jul 20
Waning Gibbous
Jul 24
Last Quarter
Jul 31
New
Aug 7
First Quarter
Aug 15
Full

Hourly Weather History & Observations

Time (CDT) Temp. Heat Index Dew Point Humidity Pressure Visibility Wind Dir Wind Speed Gust Speed Precip Events Conditions
12:53 AM 79.0 °F - 75.9 °F 90% 29.98 in 10.0 mi South 5.8 mph - N/A   Clear
1:53 AM 79.0 °F - 75.0 °F 88% 29.98 in 10.0 mi South 5.8 mph - N/A   Clear
2:53 AM 80.1 °F 84.5 °F 73.9 °F 81% 29.99 in 10.0 mi SSW 8.1 mph - N/A   Clear
3:53 AM 80.1 °F 85.1 °F 75.0 °F 85% 29.99 in 10.0 mi SW 6.9 mph - N/A   Clear
4:53 AM 80.1 °F 85.1 °F 75.0 °F 85% 30.01 in 10.0 mi WSW 5.8 mph - N/A   Clear
5:53 AM 78.1 °F - 75.0 °F 90% 30.03 in 10.0 mi South 5.8 mph - N/A   Clear
6:53 AM 78.1 °F - 75.0 °F 90% 30.05 in 10.0 mi South 5.8 mph - N/A   Clear
7:53 AM 81.0 °F 87.3 °F 75.9 °F 85% 30.06 in 10.0 mi WSW 8.1 mph - N/A   Clear
7:55 AM 80.6 °F 87.1 °F 77.0 °F 89% 30.05 in 10.0 mi WSW 11.5 mph - N/A   Clear
8:53 AM 84.0 °F 93.7 °F 77.0 °F 79% 30.06 in 10.0 mi WSW 10.4 mph - N/A   Clear
9:53 AM 86.0 °F 96.0 °F 75.9 °F 72% 30.05 in 10.0 mi West 9.2 mph - N/A   Clear
10:53 AM 87.1 °F 97.3 °F 75.9 °F 69% 30.03 in 10.0 mi SW 6.9 mph - N/A   Clear
12:53 PM 90.0 °F 99.0 °F 73.9 °F 59% 30.01 in 10.0 mi SSW 10.4 mph - N/A   Clear
1:53 PM 91.9 °F 100.7 °F 73.0 °F 54% 29.99 in 10.0 mi West 10.4 mph - N/A   Clear
2:53 PM 91.9 °F 100.7 °F 73.0 °F 54% 29.99 in 10.0 mi SW 8.1 mph - N/A   Partly Cloudy
3:53 PM 91.0 °F 97.6 °F 71.1 °F 52% 29.99 in 10.0 mi WSW 9.2 mph - N/A   Clear
4:53 PM 90.0 °F 96.4 °F 71.1 °F 54% 29.96 in 10.0 mi WSW 9.2 mph - N/A   Clear
5:53 PM 89.1 °F 100.2 °F 75.9 °F 65% 29.97 in 10.0 mi SSE 6.9 mph - N/A   Clear
6:53 PM 87.1 °F 98.8 °F 77.0 °F 72% 29.96 in 10.0 mi SSE 5.8 mph - N/A   Clear
7:53 PM 84.0 °F 93.7 °F 77.0 °F 79% 29.94 in 10.0 mi South 6.9 mph - N/A   Clear
8:53 PM 82.0 °F 90.2 °F 77.0 °F 85% 29.94 in 10.0 mi SSE 4.6 mph - N/A   Clear
10:53 PM 80.1 °F 85.4 °F 75.9 °F 87% 29.97 in 10.0 mi SSE 6.9 mph - N/A   Clear
11:53 PM 78.1 °F - 73.9 °F 87% 29.97 in 10.0 mi SSE 5.8 mph - N/A   Clear